Showing default

LES 8, 8746

Orbit data source: Space-Track

LES 8, 8746 is a payload satellite owned by SAMSO (US) in GEO that was launched on Mon, 15 Mar 1976 UTC via a TITAN IIIC launch vehicle from the Air Force Eastern Test Range (AFETR). Payload-class satellites include a variety of spacecraft equipped with specific instruments for various scientific and technological missions. These include communications satellites like Starlink; space stations such as the ISS; scientific satellites like the Hubble; Earth observation satellites from companies like Planet Labs, Umbra, and HawkEye 360; GPS; miniature CubeSats for education and research; and military/defense satellites.

Loading next visibility...
Identifier
8746, 1976-023A
Orbit
GEO
Country
Flag of USUS
Related business
Manufacturer
MIT-LL
Mission
Non-operational Defense Com/Tech
Bus & Motor
LES, Unknown motor
Mass
420 kg wet, 366 kg dry
Launch date (UTC)
1976-03-15 (50 years ago)
Launch vehicle
TITAN IIIC
Launch site
Air Force Eastern Test Range (AFETR)
Object type
Payload
Rocket body
Debris
Shape & HBR
Box + Cyl + 1 Ant, 2.0 m
Radar Cross Section
4.285 m², Large (>1 m²)

Expand to show TLE details & history
Last TLE update: 20 hours ago

TLE from 20 hours ago
0 LES 8
1 08746U 76023A   25258.44467660 -.00000132  00000-0  00000-0 0  9999
2 08746  21.8880  40.5356 0033822 149.8173 221.3686  1.00275466126938
Epoch: 2025-09-15T10:40Z
TLE epoch observation values (Epoch: 2025-09-15T10:40:20.058Z)
Latitude
4.04796°
Longitude
-104.05917°
Altitude
35,892.154 km
Speed
3.067 km/s
True Right ascension
03h 22m 41s
True Declination
4° 02' 38"
Sunlit
Object was in daylight at epoch
Visualization orbit readout
Latitude
Unknown
Longitude
Unknown
Altitude
Unknown
Speed
Unknown
Apparent Right ascension
Unknown
Apparent Declination
Unknown
Sunlit
N/A
Visualization observer readout
Local Sidereal Time
23:33:26
Azimuth
Unknown
Elevation
Unknown
Doppler factor
Unknown
Orbital elements
Apogee altitude
35,929.025 km
Perigee altitude
35,643.807 km
Semi-major axis
42,164.553 km
Eccentricity
0.00338
Inclination
21.888°
RAAN
40.5356°
Arg. of periapsis
149.8173°
True anomaly
221.11326°
Mean anomaly
221.3686°
Eccentric anomaly
221.24085°
Mean motion
0.25068 °/min
Orbital period
1,436.09 mins
BSTAR
0
Loading maneuver chart data...
Computing Atmospheric mass density...
Loading historical data...
Loading historical data...
Loading historical data...
Loading historical data...
Loading historical data...
Loading historical data...
Loading historical data...

Documentation

Showing up to 5 results
|